Visibility
15.0 15.0 15.0 15.0 15.0 15.0 15.0 15.0 15.0 15.0 15.0 15.0 15.0 15.0 14.9 15.0 15.0 15.0 15.0 6.4 13.8 15.0 15.0 15.0 15.0 15.0 15.0 15.0 15.0 15.0 15.0 15.0 15.0 15.0 15.0 15.0 15.0 15.0 15.0 15.0 15.0 15.0 15.0
15.0 15.0 15.0 15.0 15.0 15.0 15.0 15.0 15.0 15.0 15.0 15.0 15.0 15.0 15.0 15.0 15.0 15.0 15.0 14.6 3.4 15.0 15.0 15.0 15.0 15.0 15.0 15.0 15.0 15.0 15.0 15.0 15.0 15.0 15.0 15.0 15.0 15.0 15.0 15.0 15.0 15.0 15.0
15.0 15.0 15.0 15.0 15.0 15.0 15.0 15.0 15.0 15.0 15.0 15.0 15.0 12.5 15.0 15.0 7.3 13.8 15.0 12.0 5.4 15.0 15.0 15.0 15.0 15.0 15.0 15.0 15.0 15.0 15.0 15.0 15.0 15.0 15.0 15.0 15.0 15.0 15.0 15.0 15.0 15.0 15.0
15.0 15.0 15.0 0.3 15.0 15.0 15.0 15.0 15.0 15.0 15.0 15.0 8.0 4.8 5.1 15.0 12.5 15.0 15.0 10.7 3.4 15.0 15.0 15.0 15.0 15.0 15.0 15.0 15.0 15.0 15.0 15.0 15.0 15.0 15.0 15.0 15.0 15.0 15.0 15.0 15.0 15.0 15.0
15.0 15.0 15.0 15.0 15.0 15.0 15.0 15.0 15.0 15.0 15.0 15.0 12.3 2.6 2.3 15.0 15.0 8.8 15.0 4.4 11.1 15.0 15.0 15.0 15.0 15.0 15.0 15.0 15.0 15.0 15.0 15.0 15.0 15.0 15.0 15.0 15.0 15.0 15.0 15.0 15.0 15.0 15.0
15.0 15.0 15.0 15.0 15.0 15.0 15.0 15.0 13.9 14.8 15.0 14.9 5.6 5.4 4.8 12.3 15.0 15.0 15.0 14.0 15.0 15.0 15.0 15.0 15.0 15.0 15.0 15.0 15.0 15.0 15.0 15.0 15.0 15.0 15.0 15.0 15.0 15.0 15.0 15.0 15.0 15.0 15.0
15.0 15.0 15.0 15.0 15.0 15.0 15.0 15.0 15.0 0.2 15.0 14.8 7.0 4.6 7.5 10.4 15.0 15.0 15.0 15.0 15.0 15.0 15.0 15.0 15.0 15.0 15.0 15.0 15.0 15.0 15.0 15.0 15.0 15.0 15.0 15.0 15.0 15.0 15.0 15.0 15.0 15.0 15.0
15.0 15.0 15.0 15.0 15.0 15.0 15.0 15.0 15.0 0.3 13.3 10.4 5.1 4.3 5.9 15.0 11.5 15.0 15.0 15.0 15.0 15.0 15.0 15.0 15.0 15.0 15.0 15.0 15.0 15.0 15.0 15.0 15.0 15.0 15.0 15.0 15.0 15.0 15.0 15.0 15.0 15.0 15.0
15.0 15.0 15.0 15.0 15.0 15.0 15.0 6.4 15.0 15.0 9.3 14.2 5.8 3.8 8.9 7.1 14.1 3.5 13.1 15.0 15.0 15.0 15.0 15.0 15.0 15.0 15.0 15.0 15.0 15.0 15.0 15.0 15.0 15.0 15.0 15.0 15.0 15.0 15.0 15.0 15.0 15.0 15.0
15.0 15.0 15.0 15.0 15.0 15.0 15.0 15.0 15.0 15.0 15.0 15.0 10.1 3.3 2.8 2.8 6.8 15.0 15.0 15.0 15.0 15.0 15.0 15.0 15.0 15.0 15.0 15.0 15.0 15.0 15.0 15.0 15.0 15.0 15.0 15.0 15.0 15.0 15.0 15.0 15.0 15.0 15.0
15.0 15.0 15.0 15.0 15.0 15.0 15.0 12.0 15.0 15.0 15.0 15.0 15.0 12.0 4.9 3.1 2.8 8.2 15.0 15.0 15.0 15.0 15.0 15.0 15.0 15.0 15.0 15.0 15.0 15.0 15.0 15.0 15.0 15.0 15.0 15.0 15.0 15.0 15.0 15.0 15.0 15.0 15.0
15.0 15.0 15.0 15.0 15.0 15.0 15.0 15.0 5.1 12.4 7.5 15.0 15.0 15.0 15.0 5.3 3.2 3.4 5.7 7.2 15.0 15.0 15.0 15.0 15.0 15.0 15.0 15.0 15.0 15.0 15.0 15.0 15.0 15.0 15.0 15.0 15.0 15.0 15.0 15.0 15.0 15.0 15.0
15.0 15.0 15.0 15.0 15.0 15.0 15.0 9.9 13.6 15.0 13.7 15.0 13.2 15.0 6.6 6.0 13.4 8.4 5.5 3.8 4.0 7.7 15.0 15.0 15.0 15.0 15.0 15.0 15.0 15.0 15.0 15.0 15.0 15.0 15.0 15.0 15.0 15.0 15.0 15.0 15.0 15.0 15.0
15.0 15.0 15.0 15.0 15.0 15.0 15.0 15.0 15.0 10.4 7.1 10.6 15.0 15.0 15.0 15.0 6.2 5.5 4.2 3.8 4.2 4.8 9.7 12.9 15.0 15.0 15.0 15.0 15.0 15.0 15.0 15.0 15.0 15.0 15.0 15.0 15.0 15.0 15.0 15.0 15.0 15.0 15.0
15.0 15.0 15.0 15.0 15.0 15.0 15.0 15.0 15.0 15.0 14.5 12.6 14.7 12.6 14.9 15.0 15.0 15.0 13.5 4.7 5.3 3.8 3.1 2.4 3.1 3.9 6.1 13.2 15.0 15.0 15.0 15.0 15.0 15.0 15.0 15.0 15.0 15.0 15.0 15.0 15.0 15.0 15.0
15.0 15.0 15.0 15.0 15.0 15.0 15.0 15.0 15.0 15.0 15.0 15.0 15.0 15.0 15.0 14.9 15.0 15.0 15.0 10.3 6.7 6.1 3.6 1.5 3.0 4.5 5.5 4.1 8.0 15.0 15.0 14.9 15.0 15.0 15.0 15.0 15.0 15.0 15.0 15.0 15.0 15.0 15.0
15.0 15.0 15.0 15.0 15.0 15.0 15.0 15.0 15.0 15.0 15.0 14.5 13.2 15.0 15.0 0.3 3.1 14.6 4.0 0.2 6.8 9.9 7.4 12.2 4.6 4.2 6.9 6.2 3.9 4.2 10.4 5.7 15.0 15.0 13.5 13.3 15.0 15.0 15.0 15.0 15.0 15.0 15.0
15.0 15.0 14.3 10.8 15.0 15.0 15.0 15.0 15.0 15.0 12.1 8.7 0.3 8.2 15.0 15.0 15.0 4.3 0.3 0.9 0.5 0.3 11.5 10.7 14.0 10.0 6.7 9.0 7.1 7.7 10.6 6.6 13.9 6.8 6.6 15.0 15.0 15.0 15.0 12.1 10.0 15.0 15.0
15.0 15.0 15.0 15.0 15.0 15.0 15.0 15.0 15.0 15.0 15.0 15.0 6.9 1.0 3.3 3.3 6.9 1.6 13.6 15.0 9.7 0.5 6.9 14.9 14.3 14.0 14.0 6.9 11.7 1.1 13.8 15.0 15.0 15.0 15.0 15.0 15.0 15.0 15.0 12.3 14.9 15.0 15.0
15.0 13.3 13.9 9.5 15.0 15.0 15.0 15.0 15.0 15.0 15.0 1.0 11.0 15.0 15.0 13.4 0.1 0.2 0.1 0.2 14.6 13.7 15.0 0.9 14.4 15.0 15.0 15.0 15.0 0.7 15.0 10.1 15.0 14.0 15.0 15.0 15.0 12.8 14.0 15.0 15.0 0.2 7.1
15.0 15.0 10.6 15.0 15.0 15.0 15.0 15.0 15.0 15.0 15.0 15.0 15.0 15.0 15.0 15.0 15.0 15.0 15.0 14.4 0.6 0.3 0.1 0.1 0.5 1.6 1.3 0.5 1.0 2.5 0.8 0.2 0.2 0.1 0.1 7.2 15.0 15.0 6.5 7.2 8.4 5.5 15.0
15.0 15.0 15.0 15.0 15.0 15.0 15.0 15.0 15.0 15.0 15.0 15.0 15.0 15.0 15.0 15.0 15.0 15.0 15.0 15.0 15.0 15.0 15.0 15.0 15.0 15.0 15.0 15.0 15.0 15.0 0.2 14.3 3.4 0.2 11.4 15.0 9.3 15.0 7.8 3.4 14.2 15.0 15.0
15.0 15.0 15.0 15.0 15.0 15.0 15.0 15.0 15.0 15.0 15.0 15.0 15.0 15.0 15.0 15.0 15.0 15.0 15.0 15.0 15.0 15.0 15.0 15.0 13.5 11.5 15.0 15.0 15.0 15.0 15.0 1.7 3.6 15.0 15.0 15.0 15.0 15.0 8.2 12.3 13.8 14.2 1.1
14.4 0.8 4.7 9.9 15.0 15.0 15.0 9.1 15.0 15.0 15.0 15.0 15.0 15.0 15.0 15.0 15.0 15.0 15.0 15.0 15.0 15.0 14.8 15.0 13.5 13.2 0.5 0.1 0.3 0.2 15.0 15.0 15.0 15.0 15.0 15.0 15.0 14.6 7.5 5.1 0.3 0.9 8.5
0.1 0.0 0.0 0.1 11.7 15.0 15.0 15.0 15.0 15.0 15.0 15.0 15.0 15.0 15.0 15.0 15.0 15.0 15.0 15.0 15.0 15.0 8.5 15.0 1.1 0.0 0.0 0.1 8.2 15.0 15.0 15.0 15.0 15.0 15.0 12.0 4.1 0.1 0.1 0.1 0.1 0.3 1.3
1.0 0.4 0.1 0.1 0.1 4.8 9.3 15.0 15.0 15.0 15.0 15.0 15.0 15.0 15.0 15.0 15.0 15.0 15.0 15.0 15.0 15.0 15.0 15.0 15.0 11.5 10.5 15.0 15.0 15.0 15.0 15.0 15.0 15.0 12.3 0.1 0.1 0.1 0.1 0.1 0.1 0.2 0.2